User: anonymous   Login
Location: Unspecified
(0.0000°N, 0.0000°E)
Time: 22:18:34
(UTC+00:00)
Language:

DELFI C3 - Orbit

View from above orbital plane
View from above orbital plane
View from above satellite
View from above satellite

Ground track
Ground track

The orbit data is extracted from the following two-line orbital elements,

1 32789U 08021G   17327.24509281  .00003108  00000-0  22011-3 0  9992
2 32789  97.5399  22.0167 0011365 280.6575  79.3372 15.05503633520795
Epoch (UTC): 23 November 2017 05:52:56
Eccentricity: 0.0011365
inclination: 97.5399°
perigee height: 542 km
apogee height: 558 km
right ascension of ascending node: 22.0167°
argument of perigee: 280.6575°
revolutions per day: 15.05503633
mean anomaly at epoch: 79.3372°
orbit number at epoch: 52079

The dashed part of the orbit path shows where the satellite is in the earth's shadow,  

DLR